Regional Weather Roundup
Issued by NWS Upton, NY

Home | Current Version | Previous Version | Text Only | Print | Product List | Glossary On
Versions: 1 2 3 4 5 6 7 8 9 10 11 12 13 14 15 16 17 18 19 20 21 22 23 24 25 26 27
000
ASUS41 KOKX 290309
RWROKX

REGIONAL WEATHER ROUNDUP
NATIONAL WEATHER SERVICE NEW YORK NY
1100 PM EDT WED JUN 28 2017

NOTE: "FAIR" INDICATES FEW OR NO CLOUDS BELOW 12,000 FEET WITH NO
SIGNIFICANT WEATHER AND/OR OBSTRUCTIONS TO VISIBILITY.

NYZ071-072-176-178-NJZ106-104-290400-
NEW YORK CITY METRO AREA

CITY           SKY/WX    TMP DP  RH WIND       PRES   REMARKS
Central Park   CLOUDY    74  50  42 VRB5      30.14R
Bronx Bot Gard   N/A     73  48  40 SW9       30.13R
LaGuardia APRT CLOUDY    77  52  41 SW7       30.11R
Kennedy INTL   CLOUDY    69  62  78 SW9       30.13R
Breezy Point     N/A     66 N/A N/A S6          N/A
Newark/Liberty MOCLDY    73  50  44 SW12      30.11R
Teterboro      CLOUDY    73  51  46 SW8       30.10R
$$

NYZ177-179-078>081-290400-
LONG ISLAND NEW YORK

CITY           SKY/WX    TMP DP  RH WIND       PRES   REMARKS
Jones Beach      N/A     66 N/A N/A SW5         N/A
Matinecock PT    N/A    N/A N/A N/A S6G12       N/A
Farmingdale    PTCLDY    68  58  70 SW7       30.12R
MacArthur/ISP  MOCLDY    68  58  70 SW8       30.12R
Shirley        CLOUDY    69  59  70 SW6       30.13R
Mt Sinai Harb    N/A     66 N/A N/A S8          N/A
Westhampton    CLOUDY    66  58  75 SW5       30.14S
East Hampton   FAIR      65  59  79 SW7       30.13R
Montauk          N/A     67  61  81 VRB7      30.14R
$$

NYZ052-065-067-290400-
HUDSON VALLEY

CITY           SKY/WX    TMP DP  RH WIND       PRES   REMARKS
White Plains   CLOUDY    63  56  78 CALM      30.11R
Larchmont Harb   N/A     68 N/A N/A S5          N/A
Croton O-T Hud   N/A     66 N/A N/A MISG        N/A
Newburgh       PTCLDY    66  54  63 CALM      30.11R
Montgomery     CLOUDY    59  55  87 W3        30.10R
Poughkeepsie   CLEAR     60  53  77 CALM      30.09R
Albany         CLOUDY    63  53  70 CALM      30.07S
$$

NJZ001-105-106-008-010-013-015-019>022-104-290400-
NEW JERSEY

CITY           SKY/WX    TMP DP  RH WIND       PRES   REMARKS
Newark/Liberty MOCLDY    73  50  44 SW12      30.11R
Teterboro      CLOUDY    73  51  46 SW8       30.10R
Caldwell       PTCLDY    71  52  50 CALM      30.12R
Somerville     CLOUDY    61  57  87 CALM      30.11R
Linden         FAIR      72  49  44 CALM      30.12R
Perth Amboy      N/A     72 N/A N/A SW8         N/A
Sussex         PTCLDY    61  57  87 CALM      30.12R
Andover          N/A     61  56  83 CALM      30.13R
Trenton        CLOUDY    69  51  52 SW3       30.13R
Millville      PTCLDY    68  61  78 VRB3      30.17R
Atlantic City  PTCLDY    68  52  56 SW9       30.17R
Wrightstown    MOCLDY    65  54  66 SW8       30.13R
Toms River     MOCLDY    64  53  67 SW8       30.16R
Belmar         PTCLDY    67  52  58 SW7       30.16R
$$

PAZ047>061-062-071-290400-
EASTERN PENNSYLVANIA

CITY           SKY/WX    TMP DP  RH WIND       PRES   REMARKS
Philadelphia   MOCLDY    71  57  61 S10       30.15S
Allentown      PTCLDY    67  50  54 SW7       30.13R
Scranton       PTCLDY    68  50  52 CALM      30.11R
$$

CTZ002-004>006-009-010-012-RIZ004-006-007-MAZ004-011-015-290400-
SOUTHERN NEW ENGLAND
 IN CT

CITY           SKY/WX    TMP DP  RH WIND       PRES   REMARKS
Bradley INTL   MOCLDY    63  55  75 CALM      30.09R
Hartford       CLEAR     66  55  67 S7        30.09R
Danbury        PTCLDY    60  54  80 CALM      30.12R
Wtrbury/Oxford CLEAR     63  50  63 CALM      30.13R
Bridgeport     CLOUDY    69  59  70 SW5       30.11R
Meriden        CLEAR     62  56  80 CALM      30.10S
New Haven      PTCLDY    68  59  73 SW5       30.11S
Chester        FAIR      64  59  82 SW6       30.12S
Groton         CLEAR     66  58  75 W6        30.11S
Wilimantic     CLEAR     62  56  80 CALM      30.11R

 IN RI

CITY           SKY/WX    TMP DP  RH WIND       PRES   REMARKS
Providence     PTCLDY    66  57  72 W10       30.11R
Block Island   CLEAR     64  60  87 SW14      30.13R
Westerly       CLEAR     67  60  78 SW6       30.13R
 IN MA

CITY           SKY/WX    TMP DP  RH WIND       PRES   REMARKS
Boston         PTCLDY    69  50  50 SW7       30.07S
Worcester      CLEAR     62  47  57 W7        30.11S
Westfield      CLEAR     58  55  90 CALM      30.08R
Provincetown   CLEAR     64  60  87 SW8       30.09S
Nantucket      CLEAR     63  61  93 SW13      30.12S
$$

ANZ330-335-338-340-345-350-353-355-290400-
COASTAL MARINE OBSERVATIONS


STATION/POSITION TIME  SKY/WX   TEMP    WIND        PRES    VSBY  WAVE
                                AIR SEA DIR/SP/G                  HT/PER
                 (UTC)          (F)     (DEG/KT/KT) (MB)    (MI)  (FT/S)
NY HARB ENTRANCE 0150            69 68  210/ 16/ 19 1019.3          3/ 5
20 S FIRE ISLAND 0250            69 69  220/ 19/ 23 1019.6          4/ 5
GREAT SOUTH BAY  0230            71 75  220/ 17/ 19   N/A
23 SSW MONTAUK P 0150            68 66              1020.3          3/ 4
15 E BARNEGAT LI 0230               67                N/A           3/ 4
HUDSON CANYON    0150            69 69  220/ 16/ 17 1020.9          2/ 4
KINGS POINT      0230            70 67  190/  8/ 10 1019.4
EXECUTION ROCKS  0230            70     190/  6/  8   N/A
CENTRAL LI SOUND 0230            69     210/ 16/ 17   N/A           2
EASTERN LI SOUND NOT AVBL
ROBBINS REEF     0230                   220/ 10/ 13 1020.2
$$


>>>>>>>>>>>>>>>>>>>>>>>>>>>> KEY <<<<<<<<<<<<<<<<<<<<<<<<<<<
>                                                          <
>     SKY/WX - Sky Condition/Present Weather               <
>     TMP    - Temperature in Fahrenheit                   <
>     DP     - Dew Point in Fahrenheit                     <
>     RH     - Relative Humidity in Percent                <
>     WIND   - Direction (from) and Speed in MPH           <
>     PRES   - Mean Sea Level Pressure (inches of Hg)      <
>     WCI    - Wind Chill Index                            <
>     VSB    - VISIBILITY IN MILES                         <
>     HX     - HEAT INDEX                                  <
>     TC     - TEMPERATURE IN CELSIUS                      <
>     VRB    - VARIABLE WIND DIRECTION                     <
>                                                          <
>>>>>>>>>>>>>>>>>>>>>>>>>>>> KEY <<<<<<<<<<<<<<<<<<<<<<<<<<<




USA.gov is the U.S. government's official web portal to all federal, state and local government web resources and services.